Other Public Products
Issued by NWS Charleston, SC

Current Version | Previous Version | Text Only | Print | Product List | Glossary Off
Versions: 1 2 3 4 5 6 7 8 9 10 11 12 13 14 15 16 17 18 19 20 21 22 23 24 25 26 27 28 29 30 31 32 33 34 35 36 37 38 39 40 41 42 43 44 45 46 47 48 49 50

000
FPUS82 KCHS 192025
OPUCHS

TEST...KCHS/KSAV Gateway Observations...TEST
National Weather Service Charleston SC
400 PM EDT TUE SEP 19 2017

NOTE: "fair" indicates few or no clouds below 12,000 feet with no
significant weather and/or obstructions to visibility.

SCZ050-WAZ558-NCZ071-TXZ119-213-PAZ071-DCZ001-FLZ074-172-MI076-
NYZ176-178-MAZ016-IL014-TNZ027-NJZ106-GAZ044-MD014-192100-

...Gateway Observations for Charleston International...

CITY           SKY/WX    TMP DP  RH WIND       PRES   REMARKS
Chas Airport   MOSUNNY   86  65  49 N7        29.93F
Seattle        LGT RAIN  58  49  72 SW12      29.76S
Charlotte      PTSUNNY   84  66  54 VRB3      29.97F
Dallas DFW     PTSUNNY   96  70  42 S15       29.82F HX 102
Dallas Love    MOSUNNY   95  70  44 S12G25    29.82F HX 101
Philladelphia  LGT RAIN  75  66  73 E7        29.88F
Wash National  PTSUNNY   82  67  60 N16       29.91F
Baltimore      PTSUNNY   83  66  56 N7G22     29.89F
Miami          MOSUNNY   92  70  48 VRB5      29.89F HX  97
Detroit        CLOUDY    71  69  93 E3        29.97F FOG
Newark         LGT RAIN  76  65  68 NE15G26   29.90F
Laguardia      LGT RAIN  71  68  90 NE15      29.91F
J F K          LGT RAIN  70  67  90 N21G26    29.88F
Boston Logan   CLOUDY    64  63  96 NE16      30.03F FOG
Ft. Lauderdale MOSUNNY   90  78  68 NE12      29.89F HX 104
Chicago O`Hare PTSUNNY   78  63  59 E9        29.93S
Chicago Midway MOSUNNY   76  64  66 E8        29.93S
Houston Bush   CLOUDY    93  72  50 SW7       29.90F HX 101
Houston Hobby  CLOUDY    93  71  48 SE12      29.89F HX 100
Nashville      PTSUNNY   81  71  71 E6        29.95F THUNDER
Atlanta        MOSUNNY   88  63  43 NW6       29.97F

$$

GAZ044-118-TXZ119-213-NCZ071-DCZ001-MDZ014-506-PAZ021-071-NJZ106-
NYZ176-178-MAZ106-OHZ011-021-055-MIZ076-KYZ091-ILZ014-INZ047-
MNZ060-ONZ431-192100-

...Gateway Observations for Savannah International...

CITY           SKY/WX    TMP DP  RH WIND       PRES   REMARKS
Savannah Arpt  PTSUNNY   90  66  45 W7        29.93F HX  92
Atlanta        MOSUNNY   88  63  43 NW6       29.97F
Charlotte      PTSUNNY   84  66  54 VRB3      29.97F
Dallas DFW     PTSUNNY   96  70  42 S15       29.82F HX 102
Houston Bush   CLOUDY    93  72  50 SW7       29.90F HX 101
Wash National  PTSUNNY   82  67  60 N16       29.91F
Wash Dulles    MOSUNNY   82  66  58 N10       29.93F
Baltimore      PTSUNNY   83  66  56 N7G22     29.89F
Philadelphia   LGT RAIN  75  66  73 E7        29.88F
Newark         LGT RAIN  76  65  68 NE15G26   29.90F
Laguardia      LGT RAIN  71  68  90 NE15      29.91F
J F K          LGT RAIN  70  67  90 N21G26    29.88F
Boston         CLOUDY    64  63  96 NE16      30.03F FOG
Pittsburg      MOSUNNY   84  60  44 VRB6      29.98F
Akron          CLOUDY    82  62  50 VRB6      29.98F
Cleveland      CLOUDY    81  66  60 N8        29.98F
Cincinnati     CLOUDY    76  68  76 CALM      29.95F
Columbus       CLOUDY    74  69  84 SW7       29.95F
Detroit        CLOUDY    71  69  93 E3        29.97F FOG
Chicago O`Hare PTSUNNY   78  63  59 E9        29.93S
Minneapolis    PTSUNNY   78  63  59 SE14      29.79F
Indianapolis   PTSUNNY   79  66  64 W7        29.91F
Toronto Canada PTSUNNY   79  66  65 SE9       29.98F

$$




USA.gov is the U.S. government's official web portal to all federal, state and local government web resources and services.